Regional Weather Roundup
Issued by NWS

Home | Current Version | Previous Version | Graphics & Text | Print | Product List | Glossary Off
Versions: 1 2 3 4 5 6 7 8 9 10 11 12 13 14 15 16 17 18 19 20 21 22 23 24 25 26 27 28 29 30 31 32 33 34 35 36 37 38 39 40 41 42 43 44 45 46 47 48 49 50

000
ASUS43 KDMX 230201
RWRIA

WEATHER ROUNDUP FOR IOWA
NATIONAL WEATHER SERVICE DES MOINES IA
900 PM CDT SUN OCT 22 2017

NOTE: "FAIR" INDICATES FEW OR NO CLOUDS BELOW 12,000 FEET WITH NO
SIGNIFICANT WEATHER AND/OR OBSTRUCTIONS TO VISIBILITY.

* - THESE STATIONS ARE NOT NWS STATIONS...THUS NOT UNDER NWS
QUALITY CONTROL.  THEY ALSO DO NOT REPORT WEATHER SUCH
AS PRECIPITATION OR FOG.

IAZ001>003-012>014-020>022-031>034-043>046-230300-
   NORTHWEST IOWA

CITY           SKY/WX    TMP DP  RH WIND       PRES   REMARKS
DENISON *      CLEAR     55  32  41 S13       29.99S
LE MARS *      CLEAR     52  30  43 S9        29.91F
ORANGE CITY *  CLEAR     52  34  50 S6        29.92F
SHELDON *      CLEAR     50  32  50 S8        29.90F
SIOUX CITY     CLEAR     53  33  46 S7        29.93F
SPENCER        CLEAR     50  35  56 S10       29.94F
STORM LAKE *   CLEAR     50  36  57 S8        29.96S
$$

IAZ055>058-069>071-079>083-090>094-230300-
   SOUTHWEST IOWA

CITY           SKY/WX    TMP DP  RH WIND       PRES   REMARKS
ATLANTIC *     CLEAR     48  37  66 S5        30.00F
AUDUBON *      CLEAR     45  39  81 CALM      30.00F
CLARINDA *     CLEAR     45  39  81 CALM      30.05S
COUNCIL BLFS * CLEAR     57  32  38 S9        30.00S
CRESTON *      CLEAR     50  36  57 S7        30.04F
HARLAN  *      PTCLDY    48  37  66 S5        30.03F
LAMONI         CLOUDY    52  43  71 S8        30.05F
RED OAK *      CLEAR     50  36  57 S3        30.01F
SHENANDOAH *   CLEAR     50  36  57 SE7       30.02F
$$

IAZ047>049-059>061-072>074-084-230300-
   CENTRAL IOWA

CITY           SKY/WX    TMP DP  RH WIND       PRES   REMARKS
AMES           CLEAR     45  39  79 S8        30.01F
ANKENY *       CLEAR     50  41  71 SE5       30.03F
BOONE *        CLEAR     50  32  50 S6        30.00F
CHARITON *     CLOUDY    50  43  76 S7        30.05F
DES MOINES     PTCLDY    52  41  66 S9        30.03F
GRINNELL*      CLOUDY    48  42  82 S6        30.06S
KNOXVILLE *    CLOUDY    50  43  76 S7        30.04S
MARSHALLTOWN   CLOUDY    49  44  83 S7        30.03S
NEWTON *       CLOUDY    46  43  87 S7        30.05S
PELLA *        CLOUDY    50  43  76 S5        30.06S
$$

IAZ004>006-015-016-023>025-035-036-230300-
   NORTH CENTRAL IOWA

CITY           SKY/WX    TMP DP  RH WIND       PRES   REMARKS
ALGONA *       CLEAR     52  34  50 S10       29.97S
CLARION *      CLEAR     48  36  61 S9        29.99F
ESTHERVILLE    CLEAR     46  36  68 S8        29.94F
FORT DODGE *   CLEAR     54  33  45 S6        29.99F
MASON CITY     CLEAR     42  33  70 S8        30.00F
FOREST CITY *    N/A     43  36  75 S7        29.99S
WEBSTER CITY * CLEAR     50  32  50 S8        29.98F
IOWA FALLS *     N/A     48  37  65 SE6       30.03S
$$

IAZ007>011-017>019-026>030-037>042-050>054-066-230300-
   NORTHEAST IOWA

CITY           SKY/WX    TMP DP  RH WIND       PRES   REMARKS
CEDAR RAPIDS   PTCLDY    49  46  90 S3        30.05F
CHARLES CITY * CLEAR     48  45  87 S7        30.02S
CLINTON *      CLOUDY    50  49  96 W3        30.08S
DECORAH *      CLOUDY    46  45  93 S7        30.01F
DUBUQUE        CLOUDY    49  46  90 SE3       30.05F
MONTICELLO *   CLOUDY    48  46  93 CALM      30.05F
OELWEIN *      CLOUDY    46  46 100 S7        30.04F
WATERLOO       CLOUDY    48  44  86 S7        30.03S
$$

IAZ064-065-067-068-078-230300-
   EAST CENTRAL IOWA

CITY           SKY/WX    TMP DP  RH WIND       PRES   REMARKS
DAVENPORT      CLOUDY    50  49  96 CALM      30.09S
IOWA CITY      CLOUDY    49  46  90 CALM      30.08S
MUSCATINE *    CLOUDY    52  50  93 CALM      30.06F
QUAD CITIES    CLOUDY    51  49  92 CALM      30.07S
$$

IAZ062-063-075>077-085>089-095>099-230300-
   SOUTHEAST IOWA

CITY           SKY/WX    TMP DP  RH WIND       PRES   REMARKS
BURLINGTON     MOCLDY    51  51 100 CALM      30.06F
FAIRFIELD *    CLOUDY    50  46  87 CALM      30.06F
FORT MADISON * MOCLDY    52  52 100 CALM      30.07F
KEOKUK *         N/A     52  50  93 CALM      30.06F
OTTUMWA        PTCLDY    50  46  86 S5        30.06S
WASHINGTON *   CLOUDY    48  48 100 CALM      30.07F
$$

ABBREVIATIONS USED IN REMARKS
   TC - TEMPERATURES IN CELSIUS
  WCI - WIND CHILL INDEX
   HX - HEAT INDEX
  VSB - VISIBILITY
$$





USA.gov is the U.S. government's official web portal to all federal, state and local government web resources and services.